Regional Weather Roundup
Issued by NWS

Home | Current Version | Previous Version | Graphics & Text | Print | Product List | Glossary On
Versions: 1 2 3 4 5 6 7 8 9 10 11 12 13 14 15 16 17 18 19 20 21 22 23 24 25 26 27 28 29 30 31 32 33 34 35 36 37 38 39 40 41 42 43 44 45 46 47 48 49 50
000
ASUS43 KDMX 290107
RWRIA

WEATHER ROUNDUP FOR IOWA
NATIONAL WEATHER SERVICE DES MOINES IA
800 PM CDT SUN JUN 28 2015

NOTE: "FAIR" INDICATES FEW OR NO CLOUDS BELOW 12,000 FEET WITH NO
SIGNIFICANT WEATHER AND/OR OBSTRUCTIONS TO VISIBILITY.

* - THESE STATIONS ARE NOT NWS STATIONS...THUS NOT UNDER NWS
QUALITY CONTROL.  THEY ALSO DO NOT REPORT WEATHER SUCH
AS PRECIPITATION OR FOG.

IAZ001>003-012>014-020>022-031>034-043>046-290200-
   NORTHWEST IOWA

CITY           SKY/WX    TMP DP  RH WIND       PRES   REMARKS
CARROLL *      CLEAR     77  64  65 N13G18    29.84R
CHEROKEE *     CLEAR     77  57  50 N12       29.86R
DENISON *      CLEAR     77  63  61 N10       29.84R
LE MARS *      SUNNY     79  59  50 N9G17     29.88S HX  80
ORANGE CITY *  SUNNY     77  55  47 N9G17     29.88R
SHELDON *      CLEAR     79  57  47 N13G20    29.86S HX  80
STORM LAKE *   CLEAR     77  61  57 N13G18    29.87R
$$

IAZ055>058-069>071-079>083-090>094-290200-
   SOUTHWEST IOWA

CITY           SKY/WX    TMP DP  RH WIND       PRES   REMARKS
ATLANTIC *     CLEAR     79  63  57 N10       29.84R HX  80
AUDUBON *      CLEAR     79  63  57 N10       29.85S HX  80
CLARINDA *     CLEAR     81  70  69 NW8       29.84R HX  84
COUNCIL BLFS * PTCLDY    81  59  47 N7        29.86R HX  81
CRESTON *      CLEAR     79  61  53 N13G22    29.83R HX  80
HARLAN  *      CLEAR     79  63  57 N9        29.88R HX  80
RED OAK *      CLEAR     81  59  47 N12       29.84R HX  81
SHENANDOAH *   CLEAR     82  61  47 N7        29.84R HX  83
$$

IAZ047>049-059>061-072>074-084-290200-
   CENTRAL IOWA

CITY           SKY/WX    TMP DP  RH WIND       PRES   REMARKS
ANKENY *       CLEAR     77  66  69 N13       29.78R
CHARITON *     CLEAR     77  66  69 NW10      29.78S
GRINNELL*      PTCLDY    73  63  68 CALM      29.80R
KNOXVILLE *    MOCLDY    75  66  73 N14       29.77R
PELLA *        RAIN      72  68  88 N7        29.79R
PERRY *          N/A     77  64  63 N13       29.81S
$$

IAZ004>006-015-016-023>025-035-036-290200-
   NORTH CENTRAL IOWA

CITY           SKY/WX    TMP DP  RH WIND       PRES   REMARKS
ALGONA *       MOCLDY    77  63  61 N9G15     29.84R
CLARION *      CLEAR     77  61  57 N12       29.82R
FOREST CITY *  LGT RAIN  68  61  77 NE16G28   29.85R
IOWA FALLS *     N/A     75  64  69 N6        29.81R
$$

IAZ007>011-017>019-026>030-037>042-050>054-066-290200-
   NORTHEAST IOWA

CITY           SKY/WX    TMP DP  RH WIND       PRES   REMARKS
CHARLES CITY * CLOUDY    70  70 100 N6        29.81S
DECORAH *        N/A    N/A N/A N/A MISG        N/A
MONTICELLO *   CLEAR     66  66 100 E5        29.79F
OELWEIN *      MOCLDY    70  64  83 SE5       29.81R
$$

IAZ064-065-067-068-078-290200-
   EAST CENTRAL IOWA

CITY           SKY/WX    TMP DP  RH WIND       PRES   REMARKS
MT. PLEASANT * MOCLDY    75  66  73 CALM      29.76S
MUSCATINE *    MOCLDY    68  66  94 NE9       29.78S
$$

IAZ062-063-075>077-085>089-095>099-290200-
   SOUTHEAST IOWA

CITY           SKY/WX    TMP DP  RH WIND       PRES   REMARKS
FAIRFIELD *    CLEAR     75  70  83 NE3       29.76R
FORT MADISON * CLEAR     72  70  94 CALM      29.76S
KEOKUK *       CLEAR     73  68  83 S5        29.73F
OSKALOOSA *      N/A     72  68  88 CALM      29.77R
WASHINGTON *   CLEAR     70  68  94 NE7       29.78S
$$

ABBREVIATIONS USED IN REMARKS
   TC - TEMPERATURES IN CELSIUS
  WCI - WIND CHILL INDEX
   HX - HEAT INDEX
  VSB - VISIBILITY
$$




USA.gov is the U.S. government's official web portal to all federal, state and local government web resources and services.